{"data":{"norad_id":62771,"intl_designator":"2025-015P","name":"STARLINK-33598","alt_names":[],"object_type":"PAYLOAD","status":"ACTIVE","operator":null,"country":"US","launch_date":"2025-01-21","launch_site_code":"AFWTR","launch_vehicle":null,"mission":null,"orbit_class":"UNKNOWN","rcs_meters":null,"size_class":null,"mass_kg":null,"dimensions":null,"purposes":["comms"],"wikipedia_slug":null,"has_3d_model":false,"image_url":null,"decayed_at":null,"tle_current":{"epoch":"2026-05-25T04:00:03.998880Z","epoch_age_seconds":67492,"freshness":"FRESH","line1":"1 62771U 25015P   26145.16671295 -.00009763  00000+0 -28578-3 0  9990","line2":"2 62771  53.1601 326.9657 0001407  65.2007 299.3139 15.33561466  5800","mean_motion":15.33561466,"eccentricity":0.0001407,"inclination_deg":53.1601,"raan_deg":326.9657,"arg_perigee_deg":65.2007,"mean_anomaly_deg":299.3139,"bstar":-0.00028578,"rev_number":580,"period_min":93.899072970056,"perigee_km":464.23381848535,"apogee_km":466.15953258164,"semimajor_km":6843.3336755335,"source":"CELESTRAK","updated_at":"2026-05-25T13:38:19.745832Z"}}}